Tracking 25963 objects as of 12-Aug-2022
HD Live streaming from Space Station
objects crossing your sky now

OBJECT L

Track OBJECT L now!
10-day predictions


NORAD ID: 51834
Int'l Code: 2022-019L
Perigee: 527.6 km
Apogee: 553.5 km
Inclination: 97.5 °
Period: 95.3 minutes
Semi major axis: 6911 km
RCS: Unknown
Launch date: February 27, 2022
Source: People's Republic of China (PRC)
Launch site: Wenchang Satellite Launch Center (WSC)
aabbcc
Your satellite tracking list
Your tracking list is empty




NASA's NSSDC Master Catalog

Two Line Element Set (TLE):
1 51834U 22019L   22224.22985196  .00003394  00000-0  20681-3 0  9998
2 51834  97.5107 297.9085 0018734  71.0430  13.6998 15.10901590 25060
Source of the keplerian elements: AFSPC